Location: Eurasberg
(48.3353°N, 11.0839°E)
Time: 13:17:22
(UTC+00:00)

Timation 1 Rocket - Pass Details

Date: 21 April 2026
Orbit: 895 x 908 km, 70.0° (Epoch: 14 May)

Event Time Altitude Azimuth Distance (km) Brightness Sun altitude
Exits shadow 01:20:30 24° 279° (W) 1,809 5.7 -23.7°
Maximum altitude 01:22:47 30° 315° (NW) 1,567 5.6 -23.5°
Drops below altitude 10° 01:28:03 10° 16° (NNE) 2,604 7.7 -23.0°
Sets 01:30:54 0° 27° (NNE) 3,548 8.9 -22.7°
